User: anonymous   Login
Location: Unspecified
(0.0000°N, 0.0000°E)
Time: 01:22:36
(UTC+00:00)
Language:

WGS 6 (USA 244) - Orbit

View from above orbital plane
View from above orbital plane
View from above satellite
View from above satellite

Ground track
Ground track

The orbit data is extracted from the following two-line orbital elements,

1 39222U 13041A   19318.59007422  .00000102  00000-0  00000+0 0  9990
2 39222   0.0163 296.6159 0000572 299.0061 255.0410  1.00272145 22934
Epoch (UTC): 14 November 2019 14:09:42
Eccentricity: 0.0000572
inclination: 0.0163°
perigee height: 35784 km
apogee height: 35788 km
right ascension of ascending node: 296.6159°
argument of perigee: 299.0061°
revolutions per day: 1.00272145
mean anomaly at epoch: 255.0410°
orbit number at epoch: 2293

The dashed part of the orbit path shows where the satellite is in the earth's shadow,  

DLR